GFSNW_500_spd_003.txt.gz
Wind_Speed
11 15 18 18 29 32 58 41 44 48 36 35 35 38 35 38 38 34 25 25 28 25 21 27 22 20 23 24 21 19 22 20 18 17 17 25 28 28 33 37 37 37 33 16
11 12 16 30 27 45 47 39 43 41 38 34 25 30 33 35 32 28 26 27 22 18 22 21 18 14 15 16 20 20 17 16 15 17 23 31 29 26 27 30 28 35 30 18
10 11 24 16 25 50 45 50 36 43 31 23 23 29 31 28 27 26 27 20 20 15 18 17 11 12 14 13 13 14 15 19 11 5 8 10 14 18 28 31 32 30 23 22
19 24 21 19 46 46 37 40 38 34 35 29 29 31 29 26 24 24 21 17 16 12 14 11 4 10 13 11 12 10 17 15 15 15 8 9 8 17 23 26 21 32 24 29
17 25 21 28 42 34 30 36 40 38 30 18 23 26 25 22 24 22 15 16 14 13 16 10 5 5 11 14 6 11 17 16 13 9 4 2 10 14 18 23 28 30 8 32
19 30 36 24 26 27 23 30 35 31 27 27 26 21 23 24 20 16 14 16 13 13 16 11 9 7 11 9 13 15 15 19 14 13 9 7 16 11 13 16 14 15 27 33
28 28 26 28 36 31 33 27 24 29 32 24 21 19 22 20 19 15 15 18 17 17 13 14 13 7 3 6 17 17 20 21 22 13 9 10 5 9 10 13 11 16 35 32
29 30 28 31 37 31 28 24 34 27 21 23 25 21 22 21 20 17 18 17 16 17 11 15 15 14 4 1 6 10 14 13 17 19 14 21 26 24 26 26 27 28 26 22
35 34 34 35 29 28 28 26 29 28 25 22 21 26 22 19 19 19 17 17 16 14 15 14 18 17 9 6 4 7 6 5 7 14 15 14 15 17 20 20 19 19 16 14
37 36 31 28 24 31 29 29 25 30 30 27 23 24 22 20 19 18 14 18 20 20 17 16 16 20 14 14 10 7 6 5 5 7 8 10 12 14 13 14 12 10 11 11
45 42 37 30 27 34 27 29 29 28 26 25 25 23 21 19 19 17 16 16 18 16 18 19 19 23 17 17 16 12 10 8 7 7 7 8 6 5 7 8 11 12 12 12
52 48 42 35 32 32 28 24 26 26 23 28 20 23 22 19 19 18 21 16 16 17 17 19 20 19 18 19 17 14 13 11 12 11 7 6 6 7 8 10 11 11 12 13
55 51 46 39 37 33 29 27 32 22 24 29 23 22 22 20 19 18 15 13 14 15 14 21 16 22 18 16 17 13 12 13 14 12 9 9 7 5 5 7 10 10 10 11
55 54 49 47 39 35 32 28 28 21 22 26 26 25 22 21 21 17 18 13 14 18 23 19 21 19 19 15 16 16 12 12 15 16 14 12 8 8 6 6 2 9 9 9
54 57 54 45 41 37 35 30 22 24 27 28 27 28 20 19 19 17 20 17 14 16 29 22 18 17 17 19 21 18 14 17 19 18 17 16 11 9 6 9 7 9 9 9
54 58 58 49 43 41 38 32 21 28 28 30 31 28 20 20 17 12 11 13 14 18 20 18 13 15 18 22 22 23 21 18 22 22 20 19 16 15 14 12 12 14 13 10
48 58 64 53 46 42 39 32 21 25 30 32 31 27 23 20 20 13 11 14 13 15 20 18 17 18 18 16 18 25 24 21 19 21 20 22 22 19 16 15 14 12 13 12
48 58 61 55 51 45 39 32 23 25 29 32 30 28 20 23 18 13 10 14 16 17 17 16 15 15 12 11 14 14 15 19 20 20 19 20 22 25 23 16 14 13 12 13
44 56 57 55 48 44 42 35 26 23 26 34 31 28 23 22 16 11 12 9 13 21 21 18 16 15 13 14 10 14 7 9 16 18 14 13 14 15 15 15 15 16 14 14
44 52 53 52 50 42 40 38 29 24 26 25 26 30 29 23 20 16 10 13 16 19 21 19 17 16 10 14 13 14 12 5 7 14 16 14 13 14 15 17 18 16 16 16
47 52 51 51 49 45 44 35 33 29 27 23 21 26 28 30 25 21 15 16 16 18 20 18 18 14 15 13 12 15 14 12 13 12 11 13 13 13 15 18 18 17 19 21
47 57 51 51 49 49 48 45 35 30 21 20 18 22 26 28 27 24 19 16 17 19 17 19 18 19 18 18 19 19 18 18 17 16 15 15 16 17 17 18 20 22 24 26
43 53 53 52 50 48 51 43 33 22 16 16 18 23 25 29 28 25 23 21 18 17 17 18 20 20 17 16 17 18 20 22 22 21 21 20 19 20 21 23 24 25 25 25
40 49 50 50 53 46 47 47 38 30 23 17 16 25 30 30 29 26 26 25 22 18 13 16 24 26 20 18 17 17 20 22 23 24 25 25 25 25 25 24 23 24 24 25
36 42 39 49 52 52 51 52 47 40 32 27 23 20 21 28 32 34 31 28 24 17 18 21 21 21 22 23 24 22 21 21 22 25 26 27 27 26 26 26 26 26 26 25
30 43 40 41 49 53 52 51 49 46 42 35 28 24 23 26 32 35 36 32 23 18 23 25 24 23 23 21 20 22 23 23 24 24 24 25 24 25 26 27 26 26 26 26
26 43 44 36 46 44 51 50 46 44 44 39 30 26 25 26 30 29 28 22 21 30 30 27 26 27 25 21 21 22 22 22 23 23 24 23 24 26 26 26 26 26 26 25

GFSNW_500_spd_006.txt.gz
Wind_Speed
21 15 7 5 6 4 28 64 50 48 51 47 45 36 32 34 39 39 36 33 32 21 23 27 29 27 24 19 22 27 27 30 29 24 24 25 25 29 30 34 37 40 40 30
17 2 3 18 8 2 43 46 47 51 46 40 33 33 31 34 38 36 37 35 27 21 24 25 23 16 18 17 22 27 29 29 26 25 24 22 30 27 26 24 28 31 33 7
10 10 18 11 7 11 45 31 34 47 43 40 24 22 28 36 35 34 33 30 24 23 23 22 11 13 14 18 20 23 27 28 29 34 34 30 26 18 19 27 27 17 20 15
7 21 17 11 8 24 26 26 34 39 35 28 24 25 30 28 26 28 29 25 22 20 20 14 6 9 9 13 15 17 21 25 31 33 26 26 22 18 12 11 8 15 3 23
19 20 18 9 11 40 30 31 38 38 31 22 26 24 25 23 24 25 23 19 21 19 14 6 6 11 8 8 12 13 14 19 19 13 8 8 10 6 4 4 9 11 10 14
18 11 7 12 32 30 28 32 27 30 23 21 19 20 19 20 20 19 19 16 17 16 8 7 11 12 10 8 8 11 16 15 13 16 16 11 4 3 6 9 10 10 14 24
5 18 13 24 27 23 18 28 27 22 30 17 18 18 20 17 16 16 15 13 13 12 6 12 16 12 4 5 12 12 14 11 13 11 18 17 12 5 7 7 14 26 31 27
8 20 28 16 25 16 19 24 21 29 21 26 20 17 16 16 14 14 14 11 9 9 9 13 17 11 8 1 6 6 13 14 13 16 14 16 26 18 18 18 32 34 31 31
16 26 23 25 28 24 25 21 23 20 27 24 23 20 14 15 15 15 12 10 10 10 10 11 13 18 11 8 2 1 1 8 9 12 11 15 22 29 20 22 27 21 20 21
25 28 29 26 27 23 27 23 18 24 21 25 23 21 13 15 14 13 12 10 11 12 11 10 12 18 20 14 10 8 3 4 6 8 8 8 10 14 16 15 15 16 14 14
40 36 31 31 33 28 26 19 17 31 19 20 18 16 21 18 14 13 13 10 11 10 13 12 13 15 17 16 15 12 8 6 5 4 7 8 7 8 11 12 14 12 13 14
45 46 39 33 34 30 23 23 23 23 26 24 21 19 16 16 14 13 15 13 15 11 13 11 17 14 16 19 18 16 13 9 6 6 6 6 8 9 9 9 9 8 8 10
30 50 44 42 38 29 29 26 29 23 21 19 23 19 20 18 16 14 15 13 11 8 7 11 18 16 15 16 17 16 17 15 15 13 9 9 8 7 5 6 7 9 10 10
17 45 46 45 41 32 36 31 26 26 20 17 23 20 18 18 17 14 15 14 8 9 12 11 17 17 19 14 14 18 16 16 17 17 13 13 10 7 5 4 5 5 7 8
13 43 49 48 41 33 34 32 28 27 25 17 21 25 19 17 16 14 16 15 18 13 13 15 16 18 17 20 17 16 17 16 17 18 16 16 12 6 3 7 4 3 5 6
14 29 55 50 43 40 37 33 32 27 26 20 21 23 21 18 15 14 12 10 15 14 12 13 17 16 19 24 19 18 20 15 14 16 18 17 12 9 9 9 7 7 8 7
17 26 48 56 47 46 41 34 30 24 23 23 24 25 21 17 16 16 12 11 13 13 13 12 12 19 18 16 18 25 27 20 15 14 17 17 16 16 14 11 9 9 10 11
16 26 51 56 51 47 43 38 32 25 21 25 27 21 19 19 18 17 16 11 12 12 12 16 15 15 14 15 19 22 22 19 20 22 21 21 20 19 20 18 13 12 10 11
14 23 52 57 52 48 43 38 35 29 23 26 27 23 21 20 18 20 14 11 9 14 14 16 15 11 9 13 13 12 13 15 19 24 24 22 20 18 18 20 20 16 14 14
11 22 52 57 56 48 40 38 36 31 24 23 23 27 24 24 22 21 14 9 9 10 17 19 13 10 14 13 11 11 13 9 10 13 16 14 13 12 10 12 13 14 14 12
8 26 49 53 53 48 41 40 37 31 22 16 19 26 27 28 25 22 18 10 11 10 13 16 15 12 16 11 14 12 11 9 5 7 12 12 9 8 9 12 12 14 15 15
1 32 46 48 46 39 41 44 39 32 24 15 17 19 25 28 29 28 22 17 13 11 11 12 15 14 15 12 13 11 12 12 10 10 10 10 10 11 11 11 13 15 17 19
7 35 42 45 47 39 40 43 41 35 23 18 18 19 19 23 26 28 27 24 17 13 11 13 16 14 15 14 16 13 13 14 15 15 14 13 12 13 13 13 15 17 20 23
13 35 41 51 51 48 46 43 39 34 28 23 13 18 22 23 24 26 26 25 22 16 11 15 16 16 15 14 13 14 15 16 17 19 20 19 18 18 19 19 21 23 24 23
9 32 40 51 52 51 46 42 38 37 32 26 19 13 14 22 25 27 29 26 25 19 17 19 17 16 16 18 19 17 16 16 19 22 22 23 24 25 24 24 24 24 25 26
6 26 40 42 44 46 43 40 40 40 37 35 28 22 20 20 24 25 25 26 27 23 22 23 22 21 21 17 15 16 18 19 19 19 20 22 24 25 25 23 24 25 25 26
19 16 31 40 42 44 42 44 38 38 45 42 35 30 27 24 24 22 22 21 25 27 29 29 26 23 24 21 20 18 17 17 18 20 22 22 22 22 23 24 25 25 25 26

GFSNW_500_spd_009.txt.gz
Wind_Speed
28 7 14 9 10 10 9 11 33 54 40 41 41 35 38 38 32 32 36 36 34 33 30 22 19 20 23 27 24 21 22 28 24 22 32 38 39 40 38 36 36 37 39 36
23 8 16 11 13 8 3 32 35 50 44 52 38 32 34 27 25 29 35 37 34 34 27 21 19 18 24 19 16 16 21 19 22 21 28 31 38 36 31 22 30 31 31 23
30 20 16 15 15 11 18 36 24 45 47 44 40 29 31 28 25 27 35 36 34 30 20 21 16 20 17 10 14 18 17 13 21 22 26 35 34 25 25 25 25 18 12 11
23 21 14 12 19 22 21 24 31 36 38 32 28 35 26 25 23 27 32 33 31 25 21 20 17 16 6 7 11 15 13 9 13 13 12 17 23 17 10 12 9 6 12 4
18 23 16 16 18 27 29 20 29 33 28 32 22 24 27 24 22 23 23 24 27 20 20 17 15 12 4 4 8 8 7 8 13 13 13 9 12 10 10 6 1 3 5 5
6 16 13 26 24 24 21 22 25 30 32 29 21 15 18 21 21 18 19 20 19 20 17 15 16 10 8 1 2 7 9 12 12 16 21 19 13 11 6 5 5 4 12 18
7 3 9 22 19 15 18 20 30 30 24 16 19 17 21 22 19 18 16 16 18 17 15 17 15 10 8 4 6 9 11 12 13 17 19 25 21 10 10 12 13 11 22 22
4 6 14 20 11 9 15 17 17 21 21 22 23 23 20 16 18 14 14 15 11 13 17 16 13 12 9 3 3 5 8 11 12 18 15 16 16 15 16 17 16 15 19 22
10 8 22 19 17 10 16 17 22 17 22 16 19 16 16 15 14 13 13 12 12 12 16 15 14 16 13 8 3 0 2 4 7 9 13 26 21 21 22 22 26 22 19 23
14 22 21 17 24 16 17 16 12 20 17 18 18 14 12 13 14 12 9 11 10 10 15 14 12 16 16 11 8 7 2 1 3 4 8 13 14 19 17 16 19 18 17 17
10 30 31 20 20 25 17 16 17 16 16 23 22 16 15 13 14 12 9 10 11 10 11 13 11 15 22 15 13 13 9 6 4 3 3 4 8 8 7 8 11 15 14 13
23 33 39 31 28 26 25 24 18 17 19 18 16 20 17 12 15 12 13 15 15 14 8 12 11 16 21 24 20 18 16 11 7 5 6 6 6 7 6 4 3 4 4 5
36 16 48 39 34 32 31 27 20 20 24 19 18 18 13 9 21 18 15 19 17 8 7 10 12 16 21 21 23 22 21 18 15 10 8 7 9 9 9 8 8 7 7 7
50 20 30 45 40 36 35 28 23 22 22 21 17 17 17 14 15 14 18 15 12 11 5 7 9 16 19 21 22 22 22 21 20 15 12 9 10 8 6 7 8 8 7 6
60 25 25 44 46 40 36 33 28 28 22 19 18 16 17 15 19 17 14 12 13 13 10 8 12 17 20 20 18 17 20 21 19 16 15 13 12 9 9 9 7 5 7 7
65 30 23 48 48 45 40 36 33 28 27 24 17 14 20 16 16 15 13 11 12 13 16 11 15 18 19 16 19 16 16 20 17 15 13 15 14 10 9 9 10 6 4 5
65 30 21 50 55 49 43 37 36 31 27 27 21 14 18 17 15 13 11 14 13 12 9 7 13 17 15 10 12 20 22 19 16 12 11 13 15 14 11 12 10 8 6 7
60 25 20 50 56 49 43 37 37 34 27 26 23 16 17 16 14 14 13 15 13 11 10 10 14 15 13 10 19 23 23 22 18 17 14 12 15 14 14 14 14 12 6 7
55 24 17 47 53 49 42 39 35 31 27 24 19 17 18 18 18 17 16 13 11 10 10 9 16 13 11 14 16 17 17 18 21 22 20 19 18 16 18 20 22 21 18 13
49 22 17 47 54 48 44 37 34 35 31 20 16 18 21 21 20 18 15 13 11 10 9 10 10 11 13 10 10 12 13 14 14 15 16 17 19 18 14 9 4 9 11 14
43 15 17 51 55 39 40 35 35 35 29 19 13 18 24 25 23 21 17 14 12 9 7 7 14 15 9 11 12 11 10 11 7 6 11 15 15 10 9 10 14 10 11 8
33 6 27 50 45 32 31 33 36 33 28 17 13 19 22 27 27 24 19 15 14 10 8 7 10 13 11 13 10 12 12 10 8 5 9 15 15 12 8 6 6 9 12 11
19 9 32 49 32 27 42 40 37 32 28 20 14 16 15 20 26 25 22 19 17 14 10 11 8 12 13 16 12 13 11 10 11 10 10 9 8 7 7 6 6 8 9 11
10 10 32 44 28 22 38 37 34 31 28 24 20 19 16 17 21 24 23 21 20 19 13 14 12 11 14 16 14 14 15 15 14 14 13 12 12 12 12 13 13 15 16 19
16 14 31 40 40 22 20 34 32 32 30 27 24 20 17 20 20 21 22 21 21 19 18 19 17 14 12 14 16 15 15 17 19 19 19 19 20 20 20 20 22 23 24 24
29 2 29 40 41 33 18 27 31 32 31 30 28 26 20 19 20 20 22 20 18 20 21 22 22 19 16 14 13 15 18 19 18 18 20 21 22 23 22 23 24 24 23 21
18 21 3 32 44 44 42 34 34 34 34 34 35 34 31 24 21 18 15 11 20 26 27 28 28 26 21 18 17 16 16 17 20 22 22 22 22 22 22 21 21 22 22 22

GFSNW_500_spd_015.txt.gz
Wind_Speed
62 43 33 29 24 16 11 8 10 29 43 46 38 36 34 36 36 33 24 28 29 26 24 27 28 28 26 23 21 21 23 25 26 28 32 34 33 32 41 41 40 48 49 46
68 41 30 33 34 31 22 5 21 36 48 39 38 31 25 28 24 31 25 20 29 27 25 24 23 22 19 18 20 20 22 22 22 24 27 26 24 29 34 39 42 38 45 42
68 37 26 31 33 28 16 19 38 44 37 36 34 35 35 28 19 22 21 19 31 27 26 25 21 18 17 18 18 18 20 20 21 20 20 22 20 20 29 38 40 37 38 39
63 35 21 29 34 28 24 36 38 31 26 31 31 30 27 18 19 19 17 20 26 27 24 20 18 16 16 16 16 16 16 17 11 16 12 16 19 24 25 30 30 38 35 38
57 30 16 24 27 20 17 30 23 25 27 31 29 25 22 24 25 19 17 19 24 29 26 22 20 18 15 15 13 12 12 10 11 14 11 15 18 18 20 25 28 27 35 31
53 25 14 16 21 15 17 17 14 13 20 19 19 22 23 22 23 21 19 19 20 22 23 21 19 17 15 12 11 12 9 10 11 9 10 13 15 12 17 23 25 27 28 25
46 42 14 11 10 6 6 15 16 17 18 6 12 17 20 19 18 17 17 16 16 16 17 18 18 18 14 11 14 10 7 5 3 5 6 6 13 16 17 21 22 23 20 23
43 41 22 11 12 12 6 5 9 17 20 12 14 15 19 17 14 11 13 12 13 15 17 17 18 16 13 14 14 11 6 4 2 3 2 7 10 14 16 20 23 24 15 14
42 37 36 10 11 15 8 5 7 11 19 19 15 16 14 15 14 13 15 15 16 15 16 19 18 17 14 17 15 13 10 7 3 2 1 3 7 8 12 16 19 17 23 9
43 38 33 29 12 18 18 16 13 18 19 18 18 19 16 16 17 17 18 18 16 16 17 19 18 16 15 19 17 14 10 9 5 2 3 2 4 6 11 12 15 17 17 19
39 40 36 32 27 25 29 24 18 19 20 14 15 18 20 21 23 22 19 18 17 15 16 17 17 18 17 21 20 14 12 11 8 6 6 5 4 6 7 8 10 14 15 18
41 41 41 38 35 21 33 33 25 24 26 22 15 20 20 21 23 21 21 19 16 16 14 15 17 19 19 23 24 19 17 15 11 9 8 8 9 9 9 10 10 10 9 10
44 48 48 45 44 39 27 46 37 28 27 26 23 23 20 21 23 23 21 19 17 16 13 13 16 20 22 25 27 26 23 18 16 14 11 10 10 12 11 12 13 12 8 6
47 53 55 54 55 43 35 47 43 37 31 32 27 26 25 24 22 24 22 18 14 14 13 12 15 20 24 25 27 29 28 24 21 19 17 14 13 14 12 12 12 13 12 10
52 58 61 64 61 35 35 53 48 41 35 28 25 22 27 25 20 20 21 20 17 14 13 13 15 18 23 27 29 26 28 30 27 24 21 18 15 15 14 12 12 10 8 6
54 59 65 70 52 28 33 56 52 41 36 28 29 23 27 25 19 17 21 21 17 15 15 13 13 17 21 24 25 24 29 28 25 21 20 18 15 15 16 15 12 9 6 5
54 60 66 64 37 14 40 55 48 42 34 31 32 24 24 22 20 19 20 18 14 12 12 12 14 18 21 19 14 26 29 29 22 17 16 16 14 15 16 15 11 10 12 12
53 60 65 50 15 18 52 52 44 38 34 29 29 26 22 18 20 16 19 16 12 9 10 12 14 15 17 13 25 26 24 19 17 18 14 14 12 13 16 15 13 11 12 13
51 58 56 30 3 30 53 47 43 38 34 30 27 24 20 15 17 22 18 15 11 7 9 10 10 13 15 18 21 21 18 16 15 15 16 17 18 12 13 14 15 14 16 16
47 52 36 8 22 44 48 42 38 38 33 32 26 24 18 15 14 18 18 15 10 8 10 9 9 11 15 16 21 21 20 18 17 18 16 19 22 21 18 16 14 16 16 13
41 40 16 20 38 40 40 38 35 36 31 27 28 25 22 17 15 16 18 15 11 9 11 8 6 7 12 17 16 16 14 13 13 14 16 17 17 21 20 18 18 15 11 9
34 26 11 34 34 32 36 35 34 30 27 25 22 19 19 17 15 16 16 16 15 12 11 9 6 5 10 15 14 12 11 11 10 10 12 14 16 17 16 16 15 16 14 10
26 10 22 22 21 23 27 30 28 24 20 22 21 19 15 12 13 13 17 20 19 17 13 11 10 8 4 11 12 12 12 10 11 11 9 7 11 15 14 15 17 15 13 10
17 2 24 18 17 22 20 24 24 21 24 23 22 18 14 12 13 13 13 13 16 19 17 18 15 12 9 5 11 12 14 11 11 10 9 10 14 20 19 15 15 14 11 10
9 2 19 25 19 26 26 24 23 25 26 26 24 21 19 16 14 12 11 11 11 13 20 19 18 16 13 10 8 12 13 13 14 14 13 12 14 15 15 15 13 12 12 14
7 5 12 25 28 28 30 30 28 24 26 28 29 28 26 25 20 15 16 15 15 14 15 17 18 18 17 14 12 11 11 15 13 15 18 18 17 17 17 18 17 18 19 20
11 8 6 18 31 30 27 30 31 34 30 28 30 32 32 30 29 26 21 14 17 16 15 16 18 18 20 20 18 16 15 14 15 16 16 17 21 23 23 23 24 24 23 21

GFSNW_500_spd_021.txt.gz
Wind_Speed
58 62 63 56 41 34 45 51 38 39 36 42 38 31 30 28 24 20 17 17 23 28 23 23 22 22 20 18 17 14 13 11 13 16 18 20 18 20 21 21 23 25 28 28
51 54 53 43 37 40 43 41 32 30 32 34 32 26 27 28 24 22 17 15 24 26 23 22 21 20 20 18 15 13 13 13 15 18 15 15 16 18 19 20 20 17 25 27
44 48 45 33 29 31 27 20 19 20 18 17 24 24 25 21 19 17 11 11 14 20 20 20 19 20 18 16 14 13 12 13 17 13 12 13 12 15 17 18 15 13 23 32
37 39 40 25 16 21 23 18 13 10 11 10 9 11 13 13 12 13 11 6 12 15 19 21 19 18 16 14 13 12 12 14 12 12 13 9 9 11 13 7 13 23 22 28
33 31 33 30 13 8 7 7 9 6 5 5 8 5 7 4 4 9 5 5 5 17 15 15 15 14 14 13 13 12 11 10 12 11 8 6 8 9 4 8 13 17 23 24
30 26 25 26 20 8 4 4 1 4 7 6 6 3 6 2 3 1 3 3 3 13 17 15 15 14 13 11 11 10 9 8 11 8 5 6 6 5 2 7 14 13 20 24
28 25 21 20 19 13 9 10 13 9 12 14 16 14 9 9 13 11 9 8 4 1 9 18 16 14 12 9 10 9 9 10 7 7 7 6 4 3 3 9 13 16 19 25
25 27 23 18 15 15 12 14 18 16 13 15 18 22 17 17 16 14 14 12 13 12 7 10 16 16 14 12 10 10 11 9 8 7 6 6 6 2 5 8 10 13 18 22
25 26 26 23 19 15 11 14 19 19 27 23 22 16 12 14 17 14 12 10 11 12 13 10 13 14 14 15 13 12 10 9 9 7 4 6 7 2 3 9 11 14 16 19
26 27 26 26 25 22 19 18 16 20 25 25 27 31 26 22 19 17 16 14 13 12 12 14 16 15 14 14 12 11 9 10 10 5 5 10 5 6 9 10 13 15 16 16
29 28 29 29 29 29 28 25 25 21 21 32 30 28 34 33 27 21 20 18 17 16 16 16 18 17 15 14 13 11 9 10 10 6 8 8 6 7 9 10 12 14 15 16
32 34 32 33 33 34 35 34 36 33 29 30 38 33 31 32 30 24 24 20 20 19 19 18 17 17 16 15 16 13 12 13 10 10 10 8 6 5 6 9 11 12 14 16
32 37 36 37 37 40 43 43 46 47 46 39 36 39 38 33 31 28 26 23 23 22 20 18 17 18 17 17 17 16 14 13 15 14 14 11 10 10 10 10 10 12 13 13
34 39 40 41 44 49 50 53 57 61 58 43 44 48 40 33 28 25 27 24 23 22 19 18 17 17 17 18 16 15 17 17 19 19 17 14 13 12 13 13 13 12 12 10
37 41 41 43 51 54 59 64 68 51 35 33 47 44 39 32 24 23 23 23 23 23 18 16 16 16 17 17 16 18 20 20 21 21 19 18 18 19 18 15 14 14 12 9
38 39 41 47 54 59 66 65 40 20 20 30 36 33 40 32 25 23 21 22 22 20 20 17 14 17 18 14 11 24 22 21 23 20 19 19 19 16 16 16 15 15 13 10
37 37 41 48 54 63 62 34 4 28 34 36 26 27 35 29 23 21 21 19 19 21 19 19 17 18 19 16 18 21 20 18 16 16 18 19 17 16 17 16 16 15 12 11
33 35 41 47 54 53 24 12 45 41 39 30 25 32 32 27 23 25 21 18 17 21 19 19 19 18 18 17 18 18 18 17 16 14 16 18 17 17 16 15 14 12 12 13
30 33 39 42 36 14 38 48 35 30 26 24 26 29 28 22 20 21 25 18 14 16 19 18 16 15 16 16 17 17 18 16 17 18 18 18 17 18 17 15 13 14 15 15
27 29 32 22 18 40 27 31 20 25 25 21 16 23 21 17 17 16 14 15 14 18 16 15 14 11 12 15 15 14 15 14 16 15 15 16 16 18 17 17 16 15 17 15
21 22 20 7 22 13 20 19 17 18 18 16 16 20 16 15 13 9 9 13 15 13 14 14 12 11 9 13 14 13 13 14 14 14 15 16 17 18 19 20 20 19 16 16
17 14 9 10 21 17 13 14 15 15 14 13 13 16 15 14 10 6 4 7 9 11 13 14 13 13 9 5 13 16 16 15 14 13 13 13 15 19 21 19 17 19 20 17
15 8 3 18 19 15 15 13 11 11 12 10 13 12 13 13 10 9 8 8 9 10 12 14 17 16 13 9 5 14 18 17 16 14 13 14 16 16 16 18 17 16 18 17
15 8 10 21 26 21 20 18 14 12 13 12 13 13 13 13 11 10 9 8 7 7 10 11 12 15 14 12 9 5 8 15 15 13 15 16 20 15 14 16 14 14 14 20
19 12 13 19 19 30 25 20 17 16 16 15 15 15 15 15 13 11 10 8 6 4 4 5 8 11 12 12 12 11 6 6 10 13 16 9 12 12 13 14 19 22 19 23
23 17 14 19 23 19 27 27 24 21 20 20 19 18 17 17 17 15 13 10 9 7 5 5 7 10 12 13 12 13 13 9 5 9 13 13 10 14 18 19 22 24 23 23
22 22 20 18 21 25 24 26 28 26 23 23 25 25 22 22 23 20 18 17 19 20 18 15 12 11 13 14 15 15 14 15 14 11 11 13 15 19 18 17 16 17 18 19

GFSNW_500_spd_027.txt.gz
Wind_Speed
27 32 32 28 23 21 27 28 20 27 29 25 22 20 17 20 20 18 14 12 11 15 18 19 15 18 17 16 15 13 13 13 14 14 13 12 12 13 15 16 15 15 18 12
20 24 25 26 23 15 17 17 21 20 23 21 19 18 17 16 14 13 12 8 5 9 16 17 16 15 15 14 15 14 14 14 14 12 13 13 13 15 15 15 14 16 14 14
14 17 18 19 19 17 16 12 12 11 18 19 16 17 14 12 14 9 3 4 5 8 13 12 14 14 13 13 13 12 12 12 12 11 11 12 14 15 16 14 15 12 7 9
12 11 14 13 14 13 12 13 10 7 10 9 10 11 10 8 7 8 10 5 7 12 11 12 11 13 13 13 13 12 12 12 11 10 11 12 15 17 14 12 12 7 7 6
13 10 7 10 10 9 8 7 10 7 8 11 9 7 9 9 7 4 5 5 4 12 9 11 12 13 14 13 13 13 12 12 11 11 12 16 17 15 10 11 7 7 7 10
23 11 8 7 8 8 6 6 8 11 9 9 10 8 9 9 6 4 1 1 4 6 14 14 13 12 12 13 13 13 13 12 11 13 15 14 13 12 11 11 8 3 6 7
28 15 12 10 9 10 8 8 10 13 13 14 13 13 11 10 8 6 5 1 2 2 4 14 16 17 15 15 15 16 16 14 14 16 15 13 12 13 13 10 5 3 4 7
27 22 16 14 15 13 13 11 12 13 16 17 18 17 17 17 16 14 13 12 11 9 5 3 18 16 17 18 18 17 16 15 17 15 13 13 12 14 12 9 7 5 7 7
26 25 20 17 18 16 17 16 16 16 17 19 22 24 22 21 19 18 19 19 18 16 16 13 11 19 19 20 18 18 15 17 16 14 14 12 14 15 14 11 8 8 8 9
26 27 23 20 21 20 21 20 19 21 21 25 24 25 27 28 28 25 20 20 23 21 21 23 24 21 22 24 23 20 20 18 14 14 14 14 14 15 15 13 10 10 8 9
28 28 27 25 23 24 27 28 27 25 25 29 31 30 28 29 33 31 29 26 20 21 21 21 24 26 24 24 25 24 23 20 18 17 16 17 14 14 16 15 13 11 8 9
30 30 27 25 25 28 30 31 33 34 32 32 36 37 36 34 36 36 35 32 28 24 23 21 23 23 25 23 24 25 22 21 19 19 20 18 15 16 14 15 13 11 9 10
23 28 28 26 28 30 34 34 39 40 41 38 40 44 46 43 40 40 39 36 36 34 26 24 23 24 24 23 24 25 24 23 19 21 22 21 17 17 15 14 14 13 13 14
23 26 25 27 30 32 35 39 43 45 49 51 52 57 57 53 51 44 41 41 39 38 31 26 26 25 26 24 26 26 26 24 23 20 24 23 22 19 17 17 17 16 17 17
17 18 21 25 28 31 34 40 48 54 57 62 63 68 64 62 57 51 48 43 41 39 33 29 28 27 27 26 24 26 29 26 23 21 24 23 22 19 18 20 20 20 20 19
12 15 19 23 25 30 35 40 40 34 25 24 22 24 33 47 52 52 46 40 38 36 32 30 28 29 28 26 21 26 27 26 25 23 25 25 24 26 26 23 23 23 20 19
11 15 19 19 24 27 25 22 19 24 26 23 15 5 14 28 40 38 34 38 35 32 30 27 25 26 26 23 22 25 23 24 25 24 24 27 27 29 30 27 25 23 20 20
15 18 15 17 18 15 6 10 14 18 19 22 29 33 39 49 40 36 33 29 29 27 25 24 25 26 24 21 21 22 24 25 24 23 23 28 29 30 31 29 27 25 21 20
12 14 12 11 2 5 6 11 7 10 11 11 10 26 29 32 29 31 28 27 23 21 20 22 23 23 20 22 22 23 23 23 25 25 22 26 28 30 30 30 29 26 21 20
14 11 10 1 11 10 5 7 4 5 10 17 16 18 20 24 24 25 24 21 19 19 17 18 20 21 21 22 21 21 21 22 23 23 23 24 27 28 27 29 29 26 23 22
16 12 8 8 9 10 6 3 7 6 6 9 11 14 15 17 18 18 17 17 20 19 15 15 16 17 21 21 20 19 20 21 22 24 23 24 26 25 24 24 24 24 23 22
16 11 12 13 13 14 11 7 3 0 2 8 10 12 13 15 12 17 16 14 17 22 19 18 13 15 19 19 18 17 18 20 21 21 21 20 21 19 18 20 22 22 22 21
16 13 13 15 19 21 16 14 11 8 6 5 11 13 14 16 13 11 10 10 12 15 18 17 15 19 19 19 17 14 14 16 17 18 21 20 19 19 20 22 23 23 24 25
20 17 16 17 24 29 23 19 17 15 12 10 10 12 13 14 15 12 7 8 7 6 7 10 15 17 18 18 17 14 12 11 11 15 16 17 17 17 21 21 23 25 23 21
21 21 21 19 22 26 30 25 22 19 17 15 13 13 14 16 15 13 11 10 7 5 5 5 7 9 11 13 12 11 11 8 8 9 13 15 16 22 24 17 16 16 19 23
23 25 25 24 23 27 34 36 28 25 21 20 18 18 17 17 16 14 13 10 9 9 8 6 5 4 4 4 5 6 8 9 7 5 8 13 14 15 14 13 16 15 17 21
22 23 26 27 28 28 32 39 37 31 28 24 22 21 21 20 19 16 14 13 18 16 14 13 12 12 11 9 7 6 6 7 9 9 8 9 9 11 16 14 13 13 17 18

GFSNW_500_spd_033.txt.gz
Wind_Speed
27 22 21 10 9 10 9 13 20 20 18 19 15 17 12 12 11 9 9 10 10 8 9 10 15 18 16 15 14 14 16 18 19 19 18 19 20 20 19 17 15 15 16 17
25 20 21 20 7 6 5 5 11 15 16 17 14 12 10 9 7 9 9 7 5 5 4 7 15 15 14 12 13 14 14 15 18 17 17 19 18 19 18 16 15 14 16 18
22 23 21 21 8 7 1 1 2 7 10 12 13 14 11 8 5 4 4 3 3 6 10 10 11 11 13 14 14 14 14 12 13 15 16 17 18 16 16 14 13 15 13 15
26 24 22 18 22 11 9 4 3 4 5 5 6 5 0 2 2 3 4 6 6 7 13 15 14 13 12 12 12 13 12 13 14 15 14 14 15 15 14 12 14 11 14 15
30 24 22 21 20 19 16 10 9 7 5 7 7 5 4 4 2 1 1 2 5 9 13 12 13 13 14 14 13 13 12 13 14 14 13 13 13 13 12 13 12 14 13 14
32 27 24 24 22 23 17 15 13 12 7 7 8 7 7 7 5 3 2 2 4 9 10 11 12 11 11 12 13 14 12 12 12 11 11 12 12 11 11 12 12 13 15 14
31 29 24 21 22 23 24 20 16 16 15 12 11 10 9 9 8 8 8 6 5 6 11 11 12 13 12 13 13 14 13 13 12 11 11 11 11 11 10 12 14 17 16 15
29 27 26 20 21 24 27 23 20 19 20 17 15 15 15 13 13 13 13 14 12 9 9 11 16 16 16 15 15 14 14 14 14 13 13 12 11 11 12 13 16 17 16 15
29 26 27 20 19 23 26 28 25 22 22 21 21 20 19 18 17 17 17 18 19 18 16 15 14 15 20 21 19 18 17 17 16 16 15 14 13 13 14 16 18 19 18 15
25 24 26 22 18 20 27 30 29 25 25 24 23 23 23 23 24 22 22 21 21 24 23 22 20 20 17 19 21 21 22 21 19 18 17 16 14 14 16 18 19 21 19 17
26 23 23 23 23 21 22 33 30 28 26 26 26 27 29 28 27 28 27 28 26 24 24 25 26 25 24 22 21 22 23 23 21 21 18 17 16 15 17 19 20 21 21 19
25 23 21 20 21 24 27 30 33 30 27 26 30 30 31 31 32 33 33 35 33 32 30 26 24 26 29 26 23 24 23 25 24 22 21 19 19 18 20 21 23 23 23 21
25 21 20 20 21 23 27 29 31 29 27 27 31 32 33 36 40 42 41 40 42 41 36 33 31 27 24 26 25 24 23 25 23 25 24 21 19 20 21 20 22 24 25 24
23 20 21 19 20 19 17 19 22 25 25 25 31 31 33 37 40 45 50 51 49 47 44 39 34 31 27 25 24 22 22 23 22 24 24 23 22 23 24 24 23 25 24 24
21 18 17 14 13 13 13 15 15 15 20 20 25 34 40 47 54 58 56 53 57 52 49 44 37 34 31 28 22 17 19 19 21 20 22 24 26 25 22 24 25 25 25 24
16 11 9 8 9 9 10 9 11 12 15 19 25 24 37 43 44 47 46 56 59 56 51 45 37 33 32 31 26 21 18 16 18 18 21 23 25 27 23 22 26 28 28 25
12 8 8 8 10 8 6 6 3 7 11 14 21 26 42 38 24 22 28 41 53 43 46 41 33 32 32 29 23 23 23 20 16 18 19 21 23 25 26 25 24 26 29 29
10 9 10 11 7 6 5 3 5 8 8 15 19 26 32 45 24 7 14 35 49 40 28 30 29 28 27 24 19 22 24 22 20 19 21 21 21 24 28 28 28 27 28 31
10 9 10 11 5 7 3 2 5 4 6 14 20 21 24 29 39 32 32 37 37 27 20 21 18 18 18 16 19 22 21 20 20 19 19 19 20 24 27 29 30 29 28 29
13 10 10 10 8 8 6 1 4 4 4 8 14 15 13 17 16 17 19 16 10 17 17 14 12 12 13 15 18 21 22 23 22 22 22 21 22 23 25 26 29 31 30 29
14 13 13 12 12 15 12 5 4 4 4 4 5 8 8 7 5 7 16 11 11 16 10 12 13 8 14 17 19 20 21 22 23 23 21 21 22 23 25 25 26 27 28 27
16 15 12 12 15 17 18 13 11 9 6 4 2 2 1 2 5 8 9 8 10 10 12 12 8 12 15 16 17 20 20 20 21 20 19 18 21 24 24 24 24 25 26 26
19 16 15 14 14 19 24 18 18 16 11 8 6 5 7 5 6 6 8 10 8 7 10 11 12 17 16 14 14 15 15 15 16 18 17 17 18 20 20 21 20 21 23 23
17 17 15 15 16 16 24 26 23 20 17 14 10 9 10 11 9 7 8 14 12 8 9 13 14 13 15 17 18 15 15 17 18 17 16 11 9 14 18 17 17 19 20 19
13 12 13 13 15 17 18 20 27 26 20 18 17 15 13 15 14 14 12 9 10 9 11 9 8 9 10 12 14 15 16 15 12 12 11 13 11 12 13 18 19 19 21 21
16 14 14 15 16 18 17 20 21 22 30 27 23 22 20 20 21 20 17 16 14 12 12 10 10 9 7 7 9 9 8 9 9 9 13 12 11 11 14 15 18 21 22 21
21 20 17 17 18 20 21 20 21 23 22 28 32 28 27 25 24 20 19 18 18 19 17 14 12 10 8 6 4 2 2 3 5 4 3 2 3 5 3 4 12 16 15 16

GFSNW_500_spd_036.txt.gz
Wind_Speed
29 23 13 11 9 7 3 4 5 7 8 9 12 14 11 12 11 10 9 9 9 9 10 12 14 14 16 18 17 17 17 18 19 22 23 21 22 23 22 22 20 19 20 25
27 26 18 14 12 10 9 7 6 7 8 10 12 11 8 8 8 8 9 8 6 5 5 6 11 14 14 16 16 14 14 17 19 20 21 20 20 21 21 21 21 21 23 26
25 27 25 16 15 12 12 11 9 8 10 10 12 11 8 7 8 9 8 6 5 7 8 8 12 15 14 13 12 11 12 13 15 18 18 19 20 18 18 18 19 19 23 23
24 26 23 21 16 15 18 15 14 14 11 11 13 10 5 5 4 4 10 10 9 7 12 13 17 15 15 16 16 16 15 15 15 16 17 17 18 19 18 18 22 21 23 20
25 24 24 19 18 17 16 21 18 15 15 16 14 12 9 7 5 4 3 5 9 11 12 13 16 13 12 13 14 15 15 16 15 15 16 15 16 17 17 18 18 18 21 19
24 24 27 22 18 20 16 21 21 19 17 16 17 19 16 14 11 7 6 4 5 8 12 13 15 15 14 13 13 14 14 14 15 14 14 15 15 15 16 17 18 19 17 20
27 28 27 23 18 18 20 21 24 22 21 18 16 16 16 16 16 14 13 10 9 10 13 14 15 15 15 16 16 15 15 13 14 15 16 15 14 14 14 15 16 17 20 18
29 29 27 21 18 19 22 21 27 27 24 21 19 19 17 15 15 15 16 15 14 11 12 16 16 15 16 16 18 17 17 16 16 16 15 14 13 13 13 13 15 17 16 19
33 28 24 22 17 20 23 23 28 30 28 25 22 20 19 18 19 18 17 17 19 19 16 15 14 18 21 20 19 18 19 19 19 18 17 16 14 14 13 13 15 17 18 19
30 26 24 22 20 19 22 22 25 31 31 30 27 24 24 23 22 21 22 21 21 20 24 24 21 18 17 19 23 23 22 21 20 20 19 18 16 14 15 15 15 17 19 20
28 24 22 20 22 21 25 23 24 28 31 32 30 27 26 27 26 26 25 26 26 24 26 25 27 27 25 21 19 20 26 26 25 24 22 20 17 16 15 15 16 18 18 24
31 26 21 19 17 21 23 25 25 25 30 32 30 30 25 24 27 29 31 31 30 32 32 30 28 27 31 29 25 23 22 23 24 24 25 24 21 18 16 17 18 20 21 19
28 28 21 19 16 18 23 24 24 25 26 30 32 30 29 29 31 33 34 35 37 38 36 35 34 33 29 28 29 28 25 23 22 23 26 26 24 22 20 20 20 23 24 23
25 26 23 18 17 16 18 18 18 18 18 21 24 25 25 26 29 33 37 42 47 46 46 44 41 38 34 32 27 28 25 24 21 22 24 25 26 24 24 22 22 23 24 25
23 23 21 17 14 13 11 12 12 13 13 13 15 17 20 24 29 37 44 50 55 55 52 52 50 44 39 34 33 25 22 20 18 20 24 23 26 26 24 22 22 23 25 24
21 20 16 11 8 8 7 8 3 2 2 5 8 14 19 24 31 39 47 55 64 65 62 51 50 47 44 37 34 27 23 18 17 17 20 22 23 25 24 23 23 24 27 27
22 19 14 12 11 10 6 5 7 4 3 3 8 14 18 24 38 50 44 38 36 47 55 53 38 33 39 38 30 29 28 22 16 14 17 19 21 22 23 22 24 24 24 26
21 18 15 12 14 10 9 6 5 4 5 4 10 15 17 24 38 37 19 12 19 28 43 52 34 22 30 32 27 28 26 24 22 21 19 18 21 22 23 24 24 23 23 25
23 19 17 12 14 10 9 5 5 3 2 4 8 14 13 22 30 38 38 32 22 22 36 36 42 27 24 17 21 24 22 21 21 22 22 22 22 24 24 25 25 26 25 24
23 24 19 14 12 12 11 7 5 3 3 5 6 10 11 17 20 23 22 26 20 19 25 25 24 21 18 18 20 21 22 21 21 20 20 22 23 23 25 25 26 25 26 27
20 22 23 17 11 12 14 9 6 4 4 6 4 6 7 7 9 9 15 15 6 7 7 12 13 11 13 15 18 19 19 19 20 20 21 22 24 25 28 28 27 26 24 26
21 21 23 21 16 10 20 16 12 11 8 6 6 3 3 3 2 3 2 2 3 8 7 3 9 11 12 13 13 13 15 18 21 21 21 21 22 24 25 26 25 26 25 25
18 19 20 20 19 12 11 22 20 18 15 11 8 7 6 4 3 6 7 5 2 3 2 5 10 12 12 11 11 12 14 17 19 19 19 18 19 22 23 24 24 25 25 26
17 17 15 14 15 14 10 10 22 24 21 19 13 11 12 10 10 9 9 7 8 9 7 11 13 12 13 15 18 18 16 15 16 15 16 16 15 16 17 17 20 23 24 24
19 17 17 16 15 12 13 14 15 18 27 23 19 16 15 15 13 14 12 9 8 7 9 10 9 9 11 13 13 14 16 15 15 17 15 15 14 17 14 14 16 19 19 21
26 22 21 19 18 17 17 16 16 18 20 26 30 25 20 18 19 18 17 14 12 12 11 11 11 10 9 9 10 12 13 14 13 10 14 16 18 14 13 15 16 17 19 22
26 26 24 23 19 18 15 18 18 18 19 21 23 28 31 26 24 24 22 19 19 20 19 17 14 13 11 9 7 7 8 9 9 9 9 9 10 7 4 4 4 6 8 10

GFSNW_500_spd_042.txt.gz
Wind_Speed
63 63 55 38 33 35 19 18 14 13 11 11 11 12 14 13 7 5 3 3 4 5 4 4 6 6 10 13 13 12 18 23 20 14 15 16 18 22 22 26 32 35 34 38
62 62 58 44 38 36 22 21 20 17 16 14 13 12 11 11 9 9 8 7 6 6 6 7 8 9 11 13 15 15 15 15 18 21 21 19 15 21 25 28 26 23 26 30
60 61 58 52 40 34 29 20 22 21 18 18 17 16 14 13 12 11 10 8 8 8 8 8 9 8 11 13 15 19 19 20 18 19 16 18 17 19 20 23 23 23 23 25
57 61 61 56 37 34 32 17 23 25 23 22 22 20 18 15 14 13 12 12 11 11 10 12 11 10 12 11 12 15 16 18 21 20 20 20 20 21 22 22 20 26 22 28
57 59 60 57 40 31 37 16 23 29 28 25 24 24 22 18 15 13 13 14 17 18 17 14 12 11 11 12 12 14 14 14 16 18 19 20 21 21 21 21 22 22 25 27
59 61 61 54 38 32 37 21 19 29 33 32 30 26 25 22 18 16 14 13 12 12 13 15 14 14 14 12 14 15 15 17 17 16 17 18 19 16 17 20 24 25 25 22
55 60 61 56 39 36 33 23 20 30 29 37 36 30 30 27 24 21 17 15 14 12 10 11 12 14 16 16 13 14 14 15 15 14 14 14 13 14 13 14 18 18 19 22
56 61 62 55 40 31 23 21 20 25 35 28 38 35 35 32 30 27 24 21 18 17 15 13 12 12 14 15 13 14 14 14 14 14 14 13 12 13 15 15 17 18 20 20
58 63 61 50 36 30 23 21 22 24 28 30 30 38 36 33 31 28 26 23 22 21 20 18 15 14 15 14 14 13 14 15 15 14 14 15 11 13 13 14 16 17 18 19
61 62 60 36 35 29 28 23 21 20 28 29 26 36 37 35 33 31 26 24 24 23 22 22 21 18 15 15 15 17 16 15 15 17 16 15 12 14 14 14 12 14 15 17
61 62 47 31 30 27 27 26 21 21 22 28 23 30 37 34 33 32 30 30 29 26 27 25 22 21 23 22 19 16 18 20 19 18 18 17 16 15 15 12 14 15 15 15
64 58 40 28 30 28 29 27 25 18 18 25 20 23 34 37 39 35 33 31 29 28 28 29 27 25 25 24 27 25 21 20 19 23 22 22 20 18 17 16 15 16 16 15
58 51 31 26 28 27 27 23 23 18 15 18 20 19 26 35 35 34 33 31 29 28 29 30 31 30 30 28 27 29 29 29 25 21 20 21 23 24 24 23 21 19 18 18
54 44 29 25 26 25 23 19 16 14 10 12 17 16 20 26 31 30 30 30 30 31 32 35 36 37 36 34 31 33 30 30 24 27 27 25 21 22 24 25 25 24 22 21
45 37 28 23 24 25 22 16 12 9 7 8 12 15 15 17 21 24 24 22 18 19 27 32 38 41 42 42 39 37 34 30 30 27 27 27 25 23 23 24 24 26 25 25
39 32 27 22 20 23 18 13 10 6 6 9 10 10 6 2 1 5 8 12 17 23 27 35 47 50 51 49 46 41 37 34 34 35 26 27 24 25 24 24 26 25 26 27
43 33 25 21 17 17 13 8 5 3 3 6 5 4 3 3 3 6 12 17 23 32 40 46 45 50 62 62 50 45 42 41 38 37 31 29 22 23 26 25 26 26 26 28
41 30 25 18 17 15 9 8 8 6 5 4 4 4 5 6 5 9 13 18 26 37 42 44 44 44 56 69 56 55 41 38 38 35 32 29 24 22 24 24 25 26 27 27
46 29 25 19 17 16 13 9 7 9 9 10 9 8 6 5 7 10 11 17 23 28 35 34 21 17 24 36 33 33 35 33 37 34 33 30 27 22 21 20 20 23 26 27
47 36 24 21 18 17 15 8 10 10 10 12 13 11 9 7 8 7 8 12 15 22 25 37 30 27 27 31 28 24 25 26 30 29 32 31 29 27 27 29 29 28 27 28
46 46 29 24 20 14 12 11 10 13 13 12 12 12 12 9 8 9 9 10 9 14 20 20 21 15 16 15 19 21 23 25 29 30 30 30 29 27 28 30 30 30 30 32
44 44 42 26 23 17 11 9 9 12 13 13 13 12 11 12 9 8 9 9 9 14 11 12 8 5 2 11 19 16 20 22 25 24 25 24 23 24 27 28 28 28 28 28
41 46 42 45 32 24 23 20 16 16 17 18 16 14 12 11 12 11 12 9 9 8 9 11 7 3 1 3 8 13 13 15 15 16 17 18 21 23 23 24 25 26 25 25
38 41 43 41 45 43 28 22 24 25 21 21 23 24 20 17 14 14 15 13 11 10 11 13 10 5 2 2 3 6 9 11 12 13 14 15 17 17 18 19 21 23 25 24
32 35 33 37 38 39 37 29 23 23 24 23 22 21 25 23 20 16 14 14 15 12 10 9 10 9 10 9 9 10 12 14 15 14 13 13 14 15 17 16 16 13 12 14
27 30 27 30 34 35 34 33 31 24 24 23 22 22 19 19 25 20 15 12 13 13 17 13 7 10 12 11 10 10 11 13 13 12 12 13 15 14 13 15 16 19 20 21
28 30 31 31 33 33 35 34 34 31 23 23 20 19 21 19 17 18 22 22 23 24 25 21 18 17 12 9 9 8 8 11 12 10 13 15 13 14 12 15 21 22 19 17

GFSNW_500_spd_045.txt.gz
Wind_Speed
55 58 63 66 59 35 25 19 13 14 13 13 17 16 16 15 11 4 1 0 2 6 7 6 6 5 9 8 9 11 16 18 16 18 13 20 21 19 25 32 31 30 30 32
53 56 60 65 65 38 25 19 12 15 17 15 17 16 17 16 14 10 6 4 4 4 4 5 6 8 10 12 12 11 13 16 20 19 15 15 14 14 17 18 24 30 31 31
53 55 59 63 69 54 26 22 17 14 19 19 19 18 17 15 12 11 9 7 6 6 6 5 6 8 11 14 16 18 17 16 17 17 16 20 19 18 15 20 21 18 20 21
51 53 59 65 68 65 31 20 20 15 19 23 20 20 20 18 16 14 11 9 8 7 7 5 6 8 10 14 15 16 18 19 20 19 17 17 16 16 15 14 16 22 17 26
50 54 56 66 67 62 38 25 21 17 20 25 26 24 22 20 20 16 13 11 11 11 11 10 10 7 8 12 13 11 13 15 19 19 21 21 20 21 19 17 19 18 20 24
48 53 58 64 67 62 36 27 17 15 18 24 30 27 23 23 21 19 16 13 11 10 9 10 10 11 11 11 13 13 14 17 16 14 17 18 17 16 20 21 21 22 25 18
48 52 59 64 69 59 44 25 15 13 17 25 27 31 27 24 25 22 18 15 14 11 10 8 8 9 11 14 13 11 14 15 14 15 18 17 15 16 15 16 22 24 23 24
50 53 59 65 70 61 38 24 17 16 16 21 30 29 34 34 27 25 22 22 18 16 15 12 9 8 8 10 13 13 13 13 14 15 15 14 11 13 14 13 14 15 18 20
49 52 61 64 68 56 34 24 22 18 15 18 24 32 30 36 33 31 26 23 23 22 22 19 14 11 10 11 11 11 11 12 13 12 13 13 12 13 12 13 13 13 15 16
52 53 60 70 67 51 30 23 23 17 12 16 19 24 30 30 40 33 28 27 26 25 23 21 18 16 15 12 11 14 13 13 11 14 13 11 12 13 14 10 10 11 13 15
53 53 59 69 60 41 29 25 23 17 14 14 17 22 27 30 32 36 31 30 28 26 25 23 21 19 20 18 18 15 16 15 15 16 12 12 13 13 12 11 12 12 14 14
53 52 57 68 52 34 27 25 23 17 17 15 15 19 21 23 29 36 32 28 28 29 27 27 24 23 23 22 22 21 22 21 16 15 16 17 16 15 15 14 14 13 13 13
56 57 55 64 47 30 25 23 21 19 17 12 11 14 14 15 22 30 36 33 33 32 31 29 30 29 28 26 23 28 27 26 25 23 17 17 18 19 20 19 18 17 15 14
54 58 56 60 47 27 25 22 20 19 15 10 8 11 11 11 17 23 29 31 32 31 30 30 30 31 32 31 29 30 29 31 26 24 25 27 23 18 17 19 20 21 22 20
53 60 54 52 36 20 23 21 19 17 14 8 4 8 10 9 10 15 19 22 23 23 24 25 22 29 33 36 39 36 35 31 30 27 31 25 24 24 24 21 20 20 21 22
50 52 49 45 25 15 21 17 15 15 10 4 4 5 8 9 10 10 7 2 4 7 13 17 25 33 39 39 40 42 41 41 37 36 35 30 28 22 23 26 24 23 23 22
39 42 43 40 23 13 17 15 8 9 6 2 3 5 5 6 6 4 3 5 8 11 17 23 26 32 38 49 51 51 50 47 45 41 39 34 33 27 24 22 25 25 25 25
43 41 42 46 29 16 13 13 8 6 5 5 3 3 3 5 6 6 6 7 11 14 12 20 26 41 55 45 43 59 59 54 48 41 41 39 35 31 27 23 22 24 26 26
39 45 48 52 42 23 14 16 8 8 8 8 10 10 9 7 8 8 7 8 10 15 14 20 29 36 43 31 20 35 39 27 34 35 38 39 34 33 28 24 23 22 22 25
36 42 47 51 56 35 20 14 14 9 10 10 12 13 14 12 10 11 9 8 10 13 14 18 23 24 25 35 25 25 22 19 27 31 32 34 30 32 29 27 24 22 22 23
34 38 40 43 42 36 27 17 13 12 14 14 13 14 14 14 14 13 13 10 11 13 12 16 20 20 16 4 6 3 7 18 18 24 26 27 30 32 31 29 28 28 27 29
29 34 36 39 41 43 39 46 31 19 17 18 17 16 16 15 13 13 12 8 8 8 10 13 16 12 12 7 7 8 10 13 15 19 22 25 27 28 27 28 28 28 27 28
27 30 32 36 38 39 38 37 36 49 32 25 23 22 20 16 14 12 13 13 9 8 10 13 15 12 9 4 8 9 12 10 15 14 17 18 19 21 23 24 25 25 26 27
22 27 28 31 33 35 33 34 34 39 39 37 25 24 21 23 21 16 15 15 12 11 10 10 12 9 9 7 3 4 8 11 14 15 15 15 16 17 19 21 22 22 21 21
19 23 24 24 29 30 32 32 31 34 40 36 32 22 21 21 16 18 15 12 11 13 13 14 13 9 11 12 9 8 8 9 12 12 12 13 15 15 17 17 16 16 18 18
20 21 23 22 25 29 32 33 32 32 35 36 34 28 21 19 16 10 12 17 19 21 20 20 18 16 7 7 11 10 10 12 13 14 14 14 14 13 12 14 14 14 14 14
23 23 24 24 25 30 33 34 33 33 33 33 34 29 23 24 19 19 20 24 27 26 24 26 23 20 19 14 9 10 13 12 12 12 12 15 12 13 13 15 14 13 14 18

GFSNW_500_spd_048.txt.gz
Wind_Speed
42 53 58 64 70 74 71 48 20 17 15 15 15 17 11 11 10 6 3 4 5 9 7 7 11 13 15 19 21 24 25 25 25 24 23 21 23 27 27 28 30 30 27 23
41 51 54 60 66 71 73 54 26 16 17 17 17 14 12 12 13 11 12 7 6 7 9 8 7 10 12 13 17 17 21 27 24 24 23 17 19 26 24 26 26 27 30 24
42 48 50 56 64 69 74 59 34 19 16 19 20 17 15 12 12 11 12 13 11 10 10 9 7 9 11 15 18 18 18 21 22 21 22 22 17 18 21 21 21 16 15 20
39 46 48 53 63 69 73 65 39 22 17 18 22 21 18 16 13 12 10 10 10 11 12 11 9 9 10 14 18 20 21 21 21 21 24 24 23 24 22 19 15 19 13 18
38 43 48 53 58 67 70 63 44 19 16 15 20 23 19 17 16 14 13 11 10 10 11 12 12 10 11 11 14 16 18 19 23 24 24 24 23 22 20 17 17 12 17 16
36 41 46 53 53 62 73 66 39 18 14 14 20 23 22 20 19 17 14 11 10 9 8 8 11 12 13 13 15 16 15 15 17 17 20 22 22 20 23 22 22 19 23 11
37 41 45 52 54 58 71 65 40 21 18 18 18 22 27 24 24 20 17 15 11 11 10 9 7 10 13 15 14 15 14 15 15 14 21 21 16 17 20 19 21 25 22 20
38 39 45 53 56 58 67 69 44 25 19 17 19 19 24 31 28 22 22 20 15 13 12 10 9 7 9 12 15 17 15 14 16 17 17 14 14 15 16 14 17 18 19 22
40 42 44 51 57 59 64 67 45 25 21 16 12 15 27 25 33 27 22 22 21 19 17 15 12 11 10 11 12 14 16 16 16 15 14 14 14 15 13 13 15 13 14 16
41 43 48 48 56 60 63 61 43 26 18 11 13 15 16 30 26 34 27 26 23 21 20 19 17 15 15 13 12 15 15 15 14 15 14 13 16 14 15 13 13 15 15 15
42 45 47 48 56 55 58 62 34 23 15 12 15 15 15 19 31 25 33 30 28 25 23 19 16 16 17 16 17 17 16 16 17 17 14 14 16 15 16 15 15 13 13 13
39 42 45 48 55 53 56 58 34 21 18 16 15 13 15 19 22 27 24 29 29 27 26 22 21 20 20 19 18 21 21 23 20 18 17 19 18 17 17 17 17 17 17 16
33 39 45 49 51 53 52 50 26 21 19 16 12 10 10 13 17 20 20 25 30 25 24 23 21 21 22 22 21 25 25 26 25 24 21 20 19 21 21 19 18 17 17 16
31 39 43 47 52 48 50 39 21 19 18 15 10 5 6 10 11 14 17 22 27 28 28 30 27 25 26 27 27 28 28 31 28 26 23 27 26 22 19 20 22 22 20 19
28 34 38 43 49 43 43 28 17 16 16 15 11 5 6 6 7 10 13 17 19 21 23 27 25 21 25 21 24 25 26 32 34 31 30 34 29 27 29 26 22 22 23 24
34 36 38 41 40 36 38 22 18 14 16 10 6 6 4 3 6 9 9 11 12 12 8 2 9 15 18 24 26 26 31 37 41 37 37 38 35 31 28 26 28 27 24 22
33 35 35 34 33 31 31 23 14 12 11 8 5 4 3 4 5 7 5 2 2 3 7 9 14 16 18 25 34 38 48 51 49 47 43 42 39 36 32 30 25 24 28 26
32 35 35 34 30 30 28 13 13 13 11 9 9 8 7 5 4 5 7 6 8 9 12 16 18 20 25 29 38 47 46 51 56 55 52 45 43 40 38 32 30 26 23 26
28 32 35 37 38 41 41 26 12 13 13 12 11 9 9 9 10 11 11 11 13 13 14 15 16 20 23 30 36 39 28 24 33 48 58 45 39 39 40 36 32 30 25 23
21 26 29 33 36 43 39 48 36 18 15 16 18 16 15 14 15 14 13 13 14 16 17 15 16 15 17 22 27 22 16 10 18 23 31 36 39 37 33 38 35 31 27 25
14 19 22 26 27 31 35 40 36 37 28 19 21 20 20 18 17 17 16 15 15 16 15 15 12 11 12 18 22 14 11 4 5 11 15 23 28 29 33 31 35 32 29 26
11 14 15 18 22 26 30 30 33 33 30 30 25 22 23 22 20 18 17 16 14 13 12 10 11 10 9 12 17 11 10 5 9 7 11 14 19 21 25 28 34 31 29 28
11 13 14 16 19 21 24 26 26 28 31 27 30 29 23 19 21 21 18 15 14 13 11 11 12 14 10 9 11 12 9 11 11 14 10 11 12 18 19 25 31 27 24 26
12 14 16 18 19 20 19 20 23 24 26 29 29 27 31 24 17 16 19 20 16 14 17 17 15 15 13 11 9 8 10 9 10 10 12 13 10 10 15 17 19 20 22 22
16 17 18 20 21 20 20 20 21 22 23 25 28 27 23 26 22 16 11 10 18 24 24 23 21 19 16 12 11 12 11 11 14 15 13 11 13 14 16 17 18 18 19 19
20 21 22 22 24 26 25 25 24 24 25 24 24 26 24 23 19 21 20 24 23 21 25 28 28 25 22 19 14 12 12 13 13 16 17 13 15 16 15 15 16 16 17 19
24 26 27 28 28 31 30 30 29 27 29 29 26 24 25 26 25 23 22 26 35 37 30 28 31 29 28 26 22 18 15 16 17 18 19 19 17 17 18 14 13 14 16 16